This is the latest recevied weather packets stored in our database for station/object N5RPG. If no packets are shown the sender has not sent any weather packets the latest 10 day(s).
| Time | Temp. | Humidity | Pressure | Rain* | Wind** | Luminosity | Snow |
|---|---|---|---|---|---|---|---|
| 1777844324 | 27.78° C | 35% | 1018.8 hPa | 0 mm | - | 440 W/m² | - |
| 1777844022 | 27.22° C | 36% | 1018.5 hPa | 0 mm | - | 636 W/m² | - |
| 1777843719 | 28.33° C | 33% | 1018.5 hPa | 0 mm | - | 142 W/m² | - |
| 1777843417 | 28.89° C | 33% | 1018.6 hPa | 0 mm | - | 645 W/m² | - |
| 1777843114 | 27.78° C | 35% | 1018.8 hPa | 0 mm | - | 679 W/m² | - |
| 1777842810 | 27.78° C | 34% | 1018.9 hPa | 0 mm | - | 331 W/m² | - |
| 1777842505 | 27.78° C | 35% | 1018.9 hPa | 0 mm | - | 249 W/m² | - |
| 1777842203 | 27.78° C | 36% | 1019.2 hPa | 0 mm | - | 727 W/m² | - |
| 1777841898 | 27.78° C | 35% | 1019.1 hPa | 0 mm | - | 758 W/m² | - |
| 1777841595 | 27.78° C | 36% | 1019.3 hPa | 0 mm | - | 764 W/m² | - |
| 1777841291 | 27.22° C | 37% | 1019.1 hPa | 0 mm | - | 784 W/m² | - |
| 1777840989 | 28.33° C | 35% | 1019.3 hPa | 0 mm | - | 796 W/m² | - |
| 1777840686 | 28.33° C | 34% | 1019.4 hPa | 0 mm | - | 817 W/m² | - |
| 1777840383 | 27.78° C | 36% | 1019.6 hPa | 0 mm | - | 851 W/m² | - |
| 1777840080 | 28.33° C | 37% | 1019.7 hPa | 0 mm | - | 848 W/m² | - |
| 1777839778 | 27.78° C | 36% | 1019.7 hPa | 0 mm | - | 854 W/m² | - |
| 1777839475 | 27.22° C | 36% | 1019.6 hPa | 0 mm | - | 829 W/m² | - |
| 1777839173 | 27.78° C | 35% | 1019.8 hPa | 0 mm | - | 855 W/m² | - |
| 1777838870 | 27.78° C | 34% | 1020.1 hPa | 0 mm | - | 870 W/m² | - |
| 1777838566 | 27.78° C | 38% | 1020.1 hPa | 0 mm | - | 870 W/m² | - |
| 1777838263 | 27.22° C | 36% | 1020 hPa | 0 mm | - | 890 W/m² | - |
| 1777837960 | 27.22° C | 36% | 1020.1 hPa | 0 mm | - | 897 W/m² | - |
| 1777837658 | 27.22° C | 37% | 1020.4 hPa | 0 mm | - | 899 W/m² | - |
| 1777837353 | 27.22° C | 35% | 1020.4 hPa | 0 mm | - | 908 W/m² | - |
| 1777837049 | 28.33° C | 37% | 1020.4 hPa | 0 mm | - | 918 W/m² | - |
* Rain latest hour (hover to see other rain measurements)
** Current wind speed in m/s (hover to see current wind gust speed)